Main page
METAR-TAF:

METAR-TAF

Airports :

Vitória da Conquista Airport

Vitória da Conquista, Bahia, Brazil

latitude: 14-57S, longitude: 040-53W, elevation: 840 m

Current weather observation

The report was made 2 hours and 25 minutes ago, at 01:00 UTC
Wind 8 kt from the Southeast
Temperature 21°C
Humidity 88%
Pressure 1020 hPa
Visibility 10 km or more
no clouds below 1500 m and no cumulonimbus

METAR: SBQV 270100Z 13008KT CAVOK 21/19 Q1020

Time: 00:25 (03:25 UTC)


TAF: missing

Weather observations and forecasts of more than 4000 airports (METAR and TAF reports).

The available stations are represented by yellow and red dots on the map.

Hover mouse over dot to see the name of the station.

Then click to see weather observations and forecasts.

To change the map : click on the green buttons with a black cross to zoom in, on the green button with a dash to zoom out, or on the green arrows for adjacent maps.


METAR-TAF: